www.dot.il.gov - /desenv/hwystds/pdf_all/


[To Parent Directory]

Tuesday, April 19, 2005 1:04 PM 37368320 1_Rev206_AllStandards_PDF.exe
Tuesday, April 19, 2005 1:09 PM 919040 1_Rev206_Sec000.exe
Tuesday, April 19, 2005 1:11 PM 464384 1_Rev206_Sec200.exe
Tuesday, April 19, 2005 1:14 PM 156160 1_Rev206_Sec300.exe
Tuesday, April 19, 2005 1:15 PM 6812672 1_Rev206_Sec400.exe
Tuesday, April 19, 2005 1:16 PM 7357952 1_Rev206_Sec500.exe
Tuesday, April 19, 2005 1:17 PM 6360576 1_Rev206_Sec600.exe
Tuesday, April 19, 2005 1:19 PM 4608512 1_Rev206_Sec630.exe
Tuesday, April 19, 2005 1:19 PM 1302528 1_Rev206_Sec660.exe
Tuesday, April 19, 2005 1:20 PM 5387776 1_Rev206_Sec700.exe
Tuesday, April 19, 2005 1:20 PM 756736 1_Rev206_Sec720.exe
Tuesday, April 19, 2005 1:21 PM 308224 1_Rev206_Sec780.exe
Tuesday, April 19, 2005 1:21 PM 1551872 1_Rev206_Sec800.exe
Tuesday, April 19, 2005 1:22 PM 1845760 1_Rev206_SecBLR.exe
Monday, January 26, 2004 7:57 PM 640493 206-000001-04_StandardSymbolsAbbreviations&Patterns.pdf
Monday, January 26, 2004 7:58 PM 115448 206-001001_AreasOfReinfRebars.pdf
Monday, January 26, 2004 7:59 PM 146689 206-001006_DecimalOfInch&Foot.pdf
Monday, January 26, 2004 8:00 PM 58973 206-202001_EarthMedDitchCheck.pdf
Monday, January 26, 2004 8:01 PM 262309 206-280001-02_TempErosionCntrlSystems.pdf
Monday, January 26, 2004 8:01 PM 115245 206-285001-01_FabricFormedConcRevetmentMat.pdf
Thursday, April 14, 2005 11:25 AM 121979 206-353001-02_PCCBseCseWithBitConcBind&SurfCses.pdf
Monday, January 26, 2004 8:14 PM 235400 206-406001-02_EntrRampTerminalFlexiblePvmt.pdf
Monday, January 26, 2004 8:15 PM 366694 206-406101-02_ExitRampTerminalFlexiblePvmt.pdf
Monday, January 26, 2004 8:16 PM 83480 206-406201_MailboxTurnout.pdf
Friday, April 15, 2005 2:16 PM 262334 206-420001-06_PavementJoints.pdf
Thursday, April 14, 2005 2:39 PM 119654 206-420101-03_24ftJointedPCCPvmt.pdf
Thursday, April 14, 2005 2:40 PM 139685 206-420106-03_36ftJointedPCCPvmt.pdf
Monday, January 26, 2004 8:18 PM 284814 206-420111-01_PCCPvmtRoundouts.pdf
Monday, January 26, 2004 8:19 PM 292202 206-420201-04_EntrRampTerm-PCCAdjToPCC.pdf
Monday, January 26, 2004 8:20 PM 293658 206-420206-05_EntrRampTerm-PCCAdjToCRC.pdf
Monday, January 26, 2004 8:21 PM 443184 206-420301-03_ExitRampTerm-PCCAdjToPCC.pdf
Monday, January 26, 2004 8:22 PM 437511 206-420306-05_ExitRampTerm-PCCAdjToCRC.pdf
Monday, January 26, 2004 8:23 PM 454844 206-420401-05_BridgeApproachPvmt.pdf
Monday, January 26, 2004 8:24 PM 100512 206-420501-02_PCCPvmt&PCCBseCseAdjToRRGradeXing.pdf
Thursday, April 14, 2005 2:41 PM 96114 206-420601-04_24ftPCCPvmt.pdf
Monday, January 26, 2004 8:25 PM 114825 206-420701-01_PavementFabric.pdf
Monday, January 26, 2004 8:25 PM 124373 206-421001-01_BarReinfForCRCPvmt.pdf
Monday, January 26, 2004 8:26 PM 431166 206-421101-05_24ftCRCPvmt-wWideFlangeBeamTermJt.pdf
Monday, January 26, 2004 9:00 PM 438611 206-421106-05_36ftCRCPvmt-wWideFlangeBeamTermJt.pdf
Monday, January 26, 2004 9:01 PM 318769 206-421201-04_24ftCRCPvmt-wLugSys.pdf
Monday, January 26, 2004 9:01 PM 342198 206-421206-04_36ftCRCPvmt-wLugSys.pdf
Friday, April 15, 2005 2:20 PM 260669 206-424001-04_CurbRampsForSidewalk.pdf
Monday, January 26, 2004 9:02 PM 188238 206-442001-02_ClassAPatches.pdf
Monday, January 26, 2004 9:03 PM 279601 206-442101-05_ClassBPatches.pdf
Monday, January 26, 2004 9:03 PM 138619 206-442201-01_ClassC&DPatches.pdf
Monday, January 26, 2004 9:04 PM 117343 206-482001_BitShldAdjToFlexPvmt.pdf
Monday, January 26, 2004 9:04 PM 115560 206-482006-01_BitShldAdjToRigidPvmt.pdf
Monday, January 26, 2004 9:05 PM 221279 206-482011-01_BitShldStrips(Shlds)wResurfOrWiden&ResurfProj.pdf
Thursday, April 14, 2005 2:43 PM 193585 206-483001-02_PCCShld.pdf
Tuesday, January 27, 2004 8:36 AM 101804 206-503001-02_ConcParapetSlip-FormingOpt.pdf
Tuesday, January 27, 2004 8:38 AM 264778 206-509001_TubularThrieBeamRetrofitRailForBridge.pdf
Tuesday, January 27, 2004 8:52 AM 122999 206-515001-02_NamePlateForBridge.pdf
Tuesday, January 27, 2004 8:54 AM 107204 206-542001_ReinfConcEndSect-wParallelWngwalls12-48inDiaRtAngle.pdf
Tuesday, January 27, 2004 8:54 AM 139192 206-542101_ReinfConcEndSectForPipeCulv15-36inDiaRtAngle.pdf
Tuesday, January 27, 2004 8:55 AM 242457 206-542106_ReinfConcEndSectForPipeCulv42-60inDiaRtAngle.pdf
Tuesday, January 27, 2004 8:55 AM 264924 206-542111_ReinfConcEndSectForPipeCulv66-84inDiaRtAngle.pdf
Tuesday, January 27, 2004 8:56 AM 326356 206-542116_ReinfConcEndSectForMultPipeCulv15-36inDiaRtAngle.pdf
Tuesday, January 27, 2004 8:57 AM 351105 206-542121_ReinfConcEndSectForMultPipeCulv42-60inDiaRtAngle.pdf
Tuesday, January 27, 2004 8:58 AM 1337945 206-542201_ReinfConcEndSectForPipeCulv15-36inDiaSkewed.pdf
Tuesday, January 27, 2004 9:03 AM 903689 206-542206_ReinfConcEndSectForPipeCulv42-60inDiaSkewed.pdf
Tuesday, January 27, 2004 9:03 AM 144977 206-542301_PrecastReinfConcFlaredEndSect.pdf
Tuesday, January 27, 2004 9:04 AM 120992 206-542306_PrecastReinfConcEllipticalFlaredEndSect.pdf
Tuesday, January 27, 2004 9:04 AM 286695 206-542311_GratingForConcFlaredEndSection24-54inPipe.pdf
Tuesday, January 27, 2004 9:04 AM 176715 206-542401_MetalEndSectForPipeCulv.pdf
Tuesday, January 27, 2004 9:05 AM 175449 206-542406_MetalEndSectForPipeArch.pdf
Tuesday, January 27, 2004 9:05 AM 181065 206-542501_InletBoxTypeA24in.pdf
Tuesday, January 27, 2004 9:05 AM 208491 206-542506_InletBoxTypeB24in.pdf
Tuesday, January 27, 2004 9:06 AM 207145 206-542511_InletBoxTypeC24in.pdf
Tuesday, January 27, 2004 9:08 AM 224842 206-542516_InletBoxTypeD24in.pdf
Tuesday, January 27, 2004 9:08 AM 225954 206-542521_InletBoxTypeE24in.pdf
Tuesday, January 27, 2004 9:09 AM 254257 206-542526_InletBoxTypeF24in.pdf
Tuesday, January 27, 2004 9:09 AM 225550 206-542531-01_InletBoxTypeG24in.pdf
Tuesday, January 27, 2004 9:10 AM 239934 206-542536_InletBoxTypeA36in.pdf
Tuesday, January 27, 2004 9:10 AM 240418 206-542541_InletBoxTypeA48in.pdf
Tuesday, January 27, 2004 9:10 AM 141926 206-542546_FlushInletBoxForMedian.pdf
Tuesday, January 27, 2004 9:11 AM 74588 206-542601_RCPipeElbow.pdf
Tuesday, January 27, 2004 9:11 AM 166642 206-542606_RCPipeTee.pdf
Tuesday, January 27, 2004 11:34 AM 266503 206-601001_SubSurfDrains.pdf
Tuesday, January 27, 2004 11:34 AM 63676 206-601101_ConcHdwForPipeDrain.pdf
Tuesday, January 27, 2004 11:35 AM 132385 206-602001_CatchBasin-TypeA.pdf
Tuesday, January 27, 2004 11:35 AM 119787 206-602006_CatchBasin-TypeB.pdf
Tuesday, January 27, 2004 11:36 AM 71075 206-602011_CatchBasin-TypeC.pdf
Tuesday, January 27, 2004 11:36 AM 145380 206-602016_CatchBasin-TypeD.pdf
Saturday, March 06, 2004 9:41 AM 212719 206-602101-01_DrainStruc-Type1&2&3.pdf
Saturday, March 06, 2004 9:41 AM 210959 206-602106_DrainStruc-Type4&5&6.pdf
Tuesday, January 27, 2004 11:36 AM 66596 206-602301_Inlet-TypeA.pdf
Tuesday, January 27, 2004 11:37 AM 123070 206-602306_Inlet-TypeB.pdf
Tuesday, January 27, 2004 11:37 AM 109027 206-602401_Manhole-TypeA.pdf
Tuesday, January 27, 2004 11:37 AM 197432 206-602406-01_Manhole-TypeA72inDia.pdf
Tuesday, January 27, 2004 11:38 AM 104821 206-602501_ValveVault-TypeA.pdf
Tuesday, January 27, 2004 11:38 AM 113395 206-602601_PrecastReinfConcFlatSlabTop.pdf
Tuesday, January 27, 2004 11:38 AM 57172 206-602701_CastIronSteps.pdf
Tuesday, January 27, 2004 11:38 AM 70899 206-604001-02_Frame&Lids-Type1.pdf
Tuesday, January 27, 2004 11:38 AM 84914 206-604006-02_Frame&GrateType3.pdf
Tuesday, January 27, 2004 11:39 AM 90782 206-604011-02_Frame&GrateType3V.pdf
Tuesday, January 27, 2004 11:39 AM 53928 206-604016-01_Frame&GrateType4.pdf
Tuesday, January 27, 2004 11:39 AM 91860 206-604021-01_BaseFrame&LidsType5.pdf
Tuesday, January 27, 2004 11:39 AM 71835 206-604026-01_Frame&GrateType6.pdf
Tuesday, January 27, 2004 11:40 AM 37966 206-604031-01_GrateType7.pdf
Tuesday, January 27, 2004 11:40 AM 42341 206-604036-01_GrateType8.pdf
Tuesday, January 27, 2004 11:40 AM 60716 206-604041-01_Frame&GrateType9.pdf
Tuesday, January 27, 2004 11:40 AM 61131 206-604046-01_Frame&GrateType10.pdf
Tuesday, January 27, 2004 11:40 AM 80781 206-604051-01_Frame&GrateType11.pdf
Tuesday, January 27, 2004 11:41 AM 93508 206-604056-01_Frame&GrateType11V.pdf
Tuesday, January 27, 2004 11:41 AM 66719 206-604061-01_Frame&GrateType12.pdf
Tuesday, January 27, 2004 11:41 AM 96180 206-604066-01_Frame&LidType15.pdf
Tuesday, January 27, 2004 11:41 AM 70946 206-604071-02_Frame&GrateType20.pdf
Tuesday, January 27, 2004 11:42 AM 94861 206-604076-02_Frame&GrateType21.pdf
Tuesday, January 27, 2004 11:42 AM 83646 206-604081-02_Frame&GrateType22.pdf
Tuesday, January 27, 2004 11:42 AM 97450 206-604086-01_Frame&GrateType23.pdf
Tuesday, January 27, 2004 11:42 AM 93796 206-604091-01_Frame&GrateType24.pdf
Tuesday, January 27, 2004 11:42 AM 107533 206-604101_MedianInletFor24inRCPipe.pdf
Tuesday, January 27, 2004 11:43 AM 112586 206-604106_MedianInletFor36inRCPipe.pdf
Tuesday, January 27, 2004 11:43 AM 276500 206-606001-02_ConcCurbTypeB&ComboConcC&G.pdf
Tuesday, January 27, 2004 11:43 AM 278033 206-606006_OutletsForConcC&G-TypeB-6.24.pdf
Tuesday, January 27, 2004 11:44 AM 210909 206-606101-01_TypeAGut-InlOutl&Entr.pdf
Tuesday, January 27, 2004 11:44 AM 123335 206-606106-02_OutlType1ForTypeAGut.pdf
Tuesday, January 27, 2004 11:44 AM 135113 206-606111-01_OutlType2ForTypeAGut.pdf
Tuesday, January 27, 2004 11:44 AM 197828 206-606201_TypeBGut-InlOutl&Entr.pdf
Tuesday, January 27, 2004 11:44 AM 117425 206-606206-01_OutlType1ForTypeBGut.pdf
Tuesday, January 27, 2004 11:45 AM 133339 206-606211-01_OutlType2ForTypeBGut.pdf
Tuesday, January 27, 2004 11:45 AM 302914 206-606301-02_PCCIslands&Medians.pdf
Tuesday, January 27, 2004 11:45 AM 113248 206-606306-01_CorrugatedPCCMedians.pdf
Tuesday, January 27, 2004 11:45 AM 145960 206-606401_PavedDitch.pdf
Tuesday, January 27, 2004 11:47 AM 263912 206-609001-02_BridgeApproachShldPvmt&Drain.pdf
Tuesday, January 27, 2004 11:47 AM 253904 206-609006-02_BridgeApproachPvmt(DrainDetail).pdf
Tuesday, January 27, 2004 11:48 AM 252181 206-610001-02_ShldInletWithCurb.pdf
Wednesday, August 25, 2004 10:35 AM 424102 206-630001-05_SteelPlateBeamGrdrail.pdf
Wednesday, August 25, 2004 10:37 AM 194212 206-630101-05_GuardrailMountedOnExCulv.pdf
Friday, August 27, 2004 3:07 PM 121430 206-630201-03_PCC-BitStb@SteelPlateBeamGrdRail.pdf
Wednesday, August 25, 2004 10:39 AM 135133 206-630301-03_ShldWidenForType1GrdrailTerms.pdf
Tuesday, January 27, 2004 11:56 AM 85879 206-631006-03_TrafBarTermType1B.pdf
Tuesday, January 27, 2004 11:57 AM 115013 206-631011-02_TrafBarTermType2.pdf
Tuesday, January 27, 2004 11:57 AM 172822 206-631026-02_TrafBarTermType5&5A.pdf
Tuesday, January 27, 2004 11:57 AM 229027 206-631031-05_TrafBarTermType6.pdf
Tuesday, January 27, 2004 11:58 AM 270196 206-631032-01_TrafBarTermType6A.pdf
Tuesday, January 27, 2004 11:58 AM 172770 206-631033-01 TrafBarTermType6B.pdf
Tuesday, January 27, 2004 11:58 AM 136547 206-631036-04_TrafBarTermType8.pdf
Tuesday, January 27, 2004 11:59 AM 132666 206-631041-01_TrafBarTermType9.pdf
Tuesday, January 27, 2004 11:59 AM 103473 206-631046-02_TrafBarTermType10.pdf
Tuesday, January 27, 2004 11:59 AM 142335 206-631051-01_TrafBarTermType11.pdf
Tuesday, January 27, 2004 11:59 AM 121692 206-631056-01_TrafBarTermType12.pdf
Tuesday, January 27, 2004 12:00 PM 204797 206-635001_Delineators.pdf
Tuesday, January 27, 2004 12:08 PM 90254 206-635006-02_Reflector&TermMrkrPlacemnt.pdf
Tuesday, January 27, 2004 12:09 PM 166549 206-635011-01_ReflectorMrkr&MountDetails.pdf
Wednesday, August 25, 2004 10:40 AM 398862 206-636001-01_CableRdGrd-SingleStrand.pdf
Tuesday, January 27, 2004 12:10 PM 156112 206-637001-02_ConcBarrierDblFace32in.pdf
Tuesday, January 27, 2004 12:10 PM 154080 206-637006_ConcBarrierDblFace42in.pdf
Tuesday, January 27, 2004 12:10 PM 89545 206-638001-01_GlareScreenBlades.pdf
Tuesday, January 27, 2004 12:11 PM 60980 206-638101-01_ConcGlareScreen.pdf
Tuesday, January 27, 2004 12:11 PM 206466 206-639001_Sightscrn-PrecstPrestressConcPanelWall.pdf
Tuesday, January 27, 2004 12:11 PM 268068 206-640001_Sightscrn-ChainLinkFence.pdf
Tuesday, January 27, 2004 12:11 PM 115774 206-641001_Sightscrn-CedarStckadeFenceTypeS.pdf
Tuesday, January 27, 2004 12:12 PM 108848 206-641006_Sightscrn-WoodPlankFenceTypeP.pdf
Tuesday, January 27, 2004 12:12 PM 91312 206-642001_ShldRumbleStrips.pdf
Tuesday, January 27, 2004 12:17 PM 452255 206-664001-01_ChainLinkFence.pdf
Tuesday, January 27, 2004 12:17 PM 552190 206-665001-01_WovenWireFence.pdf
Tuesday, January 27, 2004 12:17 PM 84509 206-666001_ROWMrkrs.pdf
Tuesday, January 27, 2004 12:18 PM 59971 206-667001_DrainageMrkrs.pdf
Tuesday, January 27, 2004 12:18 PM 92973 206-667101_PermanentSurveyMrkrs.pdf
Tuesday, January 27, 2004 12:18 PM 45511 206-668001 _MethOfResetting-USGS&NGS-Benchmarks.pdf
Wednesday, August 25, 2004 9:00 AM 58346 206-701001-01_OffRdOp-2L2W-15ftMinFromEOP-45MPH+.pdf
Wednesday, August 25, 2004 9:00 AM 93806 206-701006-02_OffRdOp-2L2W-15ftToEOP-45MPH+.pdf
Wednesday, August 25, 2004 9:01 AM 91589 206-701011-01_OffRdMovingOp-2L2W-DayOnly-45MPH+.pdf
Wednesday, August 25, 2004 9:02 AM 96092 206-701101-01_OffRdOp-MultiLn-LessThan15ftToEOP.pdf
Wednesday, August 25, 2004 9:03 AM 62359 206-701106-01_OffRdOp-MultiLn-MoreThan15ftAway.pdf
Wednesday, August 25, 2004 9:04 AM 107887 206-701201-02_LnClosure2L2W-DayOnly.pdf
Wednesday, August 25, 2004 9:05 AM 92670 206-701206-01_LnClosure2L2W-NightOnly45MPH+.pdf
Wednesday, August 25, 2004 9:21 AM 97847 206-701301-02_LnClosure2L2W-ShortTimeOp.pdf
Wednesday, August 25, 2004 9:22 AM 107890 206-701306-01_LnClosure2L2W-SlowMoveOpDayOnly45MPH+.pdf
Tuesday, January 27, 2004 12:23 PM 81284 206-701311-02_LnClosure2L2W-MovingOpDayOnly.pdf
Wednesday, August 25, 2004 10:40 AM 201482 206-701316-03_LnClosure2L2W-BridgeRepair45MPH+.pdf
Wednesday, August 25, 2004 10:42 AM 238509 206-701321-08_LnClosure2L2W-BridgeRepair+Barrier.pdf
Wednesday, August 25, 2004 9:27 AM 120567 206-701326-02_LnClosure2L2W-PvmtWidening45MPH+.pdf
Wednesday, August 25, 2004 9:28 AM 145928 206-701331-02_LnClosure2L2W+RunAround45MPH+.pdf
Wednesday, August 25, 2004 9:29 AM 146653 206-701336-04_LnClosure2L2W-WorkAreasInSeries45MPH+.pdf
Wednesday, August 25, 2004 9:31 AM 132832 206-701400-02_ApprchToLnClosure-FrwayExpway.pdf
Wednesday, August 25, 2004 9:33 AM 157623 206-701401-03_LnClosureFrwayExpway.pdf
Wednesday, April 07, 2004 8:50 AM 113984 206-701402-05_LnClosureFrwayExpway+Barrier.pdf
Wednesday, April 07, 2004 8:51 AM 115776 206-701406-04_LnClosureFrwayExpway-DayOpOnly.pdf
Wednesday, August 25, 2004 10:42 AM 279793 206-701411-03_LnClosureMultiLn-EntrOrExitRamp45MPH+.pdf
Wednesday, April 07, 2004 8:52 AM 129893 206-701416-05_LnClosureFrwayExpway+Crossover&Barrier.pdf
Wednesday, April 07, 2004 8:53 AM 129587 206-701421-01_LnClosureMultiLn-DayOpOnly45-55MPH.pdf
Wednesday, April 07, 2004 9:00 AM 154234 206-701422-01_LnClosureMultiLn-45-55MPH.pdf
Wednesday, April 07, 2004 9:01 AM 148469 206-701423-01_LnClosureMultiLn+Barrier45-55MPH.pdf
Wednesday, August 25, 2004 9:36 AM 148859 206-701426-02_LnClosureMultiLn-IntermittantOrMovingOp45MPH+.pdf
Wednesday, April 07, 2004 9:01 AM 158252 206-701431-03_LnClosureMultiLnUndivided+Crossover45-55MPH.pdf
Wednesday, August 25, 2004 9:36 AM 172332 206-701446_TwoLnClosure-FrwayExpway.pdf
Wednesday, August 25, 2004 9:37 AM 116279 206-701501-03_UrbanLnClosure2L2W-Undivided.pdf
Wednesday, August 25, 2004 10:44 AM 195131 206-701502-01_UrbanLnClosure2L2W+BidirectLeftTurnLn.pdf
Wednesday, August 25, 2004 10:44 AM 179342 206-701601-04_UrbanLnClosureMultiLn1W2W+NontrvsableMed.pdf
Wednesday, August 25, 2004 10:46 AM 324298 206-701602-02_UrbanLnClosureMultiLn2W+BidirectLeftTurnLn.pdf
Wednesday, August 25, 2004 10:47 AM 186048 206-701606-04_UrbanLnClosureMultiLn2W+MountableMed.pdf
Wednesday, August 25, 2004 9:44 AM 141914 206-701701-04_UrbanLnClosureMultiLnIntersection.pdf
Tuesday, January 27, 2004 12:30 PM 115779 206-701801-03_LnClosureMultiLn1W2W+CrosswalkOrSWClosure.pdf
Wednesday, August 25, 2004 10:47 AM 309630 206-702001-05_TrafCntrlDevices.pdf
Tuesday, January 27, 2004 12:31 PM 285327 206-704001-02_TempConcBarrier.pdf
Tuesday, January 27, 2004 12:32 PM 85098 206-720001_SignPanelMountDetails.pdf
Tuesday, January 27, 2004 12:38 PM 202083 206-720006_SignPanelErectDetails.pdf
Tuesday, January 27, 2004 12:39 PM 78871 206-720011_MetalPostsForSignsMrkrs&Delineators.pdf
Tuesday, January 27, 2004 12:39 PM 105298 206-720016-01_MastArmMountedStNameSigns.pdf
Tuesday, January 27, 2004 12:39 PM 159575 206-720021-01_SignPanels-ExtrudedAlumType.pdf
Tuesday, January 27, 2004 12:40 PM 104704 206-729001_AppOfTypesA&BPosts.pdf
Tuesday, January 27, 2004 12:31 PM 175191 206-780001-01_TypicalPvmtMrkings.pdf
Tuesday, January 27, 2004 12:31 PM 101279 206-781001-02_TypicalAppRaisedReflcPvmtMrkrs.pdf
Tuesday, January 27, 2004 12:26 PM 102029 206-805001_ElecSrvcInstallDetails.pdf
Tuesday, January 27, 2004 12:26 PM 45497 206-813001-01_JunctionBoxes.pdf
Tuesday, January 27, 2004 12:27 PM 89836 206-814001_ConcHandholes.pdf
Tuesday, January 27, 2004 12:27 PM 117545 206-814006_DblHandholes.pdf
Tuesday, January 27, 2004 12:28 PM 123069 206-857001_StdPhaseDesignationDiagrams&PhaseSeq.pdf
Tuesday, January 27, 2004 12:28 PM 81117 206-857006_SupervisedRRInterconnectCircuit-.pdf
Wednesday, August 25, 2004 9:47 AM 105266 206-877001-02_SteelMastArmAssembly&Pole.pdf
Wednesday, August 25, 2004 9:48 AM 127502 206-877006-02_SteelMastArmAssembly&Pole+DualMastArms.pdf
Wednesday, August 25, 2004 9:49 AM 154319 206-877011-02_SteelComboMastArmAssembly&Pole.pdf
Wednesday, August 25, 2004 10:48 AM 224484 206-878001-03_ConcreteFoundationDetails.pdf
Tuesday, January 27, 2004 12:29 PM 119894 206-880001_SpanWireMountSignals&FlashBeaconInstall.pdf
Tuesday, January 27, 2004 12:29 PM 76503 206-880006_TrfSignalMountDetails-Post&BracketMount.pdf
Tuesday, January 27, 2004 12:30 PM 118333 206-886001_DetectorLoopInstallations.pdf
Tuesday, January 27, 2004 12:30 PM 62053 206-886006_TypicalLayoutsForDetectionLoops.pdf
Friday, April 15, 2005 2:20 PM 340182 206-BLR10-05_PCCPvmtSpecial-NonReinf.pdf
Thursday, April 14, 2005 2:45 PM 151120 206-BLR14-9_PCCPvmt-NonReinf.pdf
Tuesday, January 27, 2004 12:23 PM 147231 206-BLR17-3_TrafCntrlDevices-DayLaborConstr.pdf
Tuesday, January 27, 2004 12:23 PM 149205 206-BLR18-4_TrafCntrlDevices-DayLaborMaint.pdf
Tuesday, January 27, 2004 12:20 PM 129121 206-BLR2-2_CombSect&ROWMarkers.pdf
Tuesday, January 27, 2004 12:24 PM 254275 206-BLR20-4_TrafBarrierTermType5R.pdf
Tuesday, January 27, 2004 12:24 PM 122664 206-BLR21-6_TypAppTrafCntrlDevices-ConstrOnRuralLocalHwys.pdf
Tuesday, January 27, 2004 12:24 PM 104584 206-BLR22-4_TypAppTrafCntrlDevices-ConstrOnRuralLocalHwys(2L2W-RdClsdToThruTraf).pdf
Tuesday, January 27, 2004 12:25 PM 230928 206-BLR23-1_TrafBarrierTermType1.pdf
Tuesday, January 27, 2004 12:25 PM 91660 206-BLR24-1_MailboxTurn-LocalRds.pdf
Tuesday, January 27, 2004 12:25 PM 28243 206-BLR25_Type1ABarrForNonNHSRts.pdf
Tuesday, January 27, 2004 12:21 PM 93646 206-BLR6-5_SectMarkers.pdf
Wednesday, January 03, 2007 3:19 PM <dir> _vti_cnf